Погода в Шенджии

Россия / Республика Адыгея     44°52′57″N   39°03′54″E
темп.,
°C
ветер,
м/с
пор.,
м/с
влажн.,
%
обл.,
%
осадки,
мм/ч
давл.,
гПа
погр.,
м
6 мая, чт
чт600:00+10в387137 0.0 1015203
03:00+9вюв248299 0.0 1014121
06:00+9вюв238214 0.0 101397
09:00+15юв116283 0.0 1013333
12:00+21ю134569 0.0 10121029
15:00+23зюз1436100 0.0 10111737
18:00+20с2348100 0.0 1011356
21:00+15сз356288 0.0 1013130
7 мая, пт
пт700:00+12з34593 0.0 1014114
03:00+11з23600 0.0 101581
06:00+10юз22613 0.0 101659
09:00+17юз34475 0.0 1017481
12:00+21зюз45385 0.0 10171484
15:00+22юз44425 0.0 10171634
18:00+20ююз345425 0.0 1016319
21:00+15ююз355996 0.0 1018126
8 мая, сб
сб800:00+13ю23665 0.0 101766
03:00+12ююв2373100 0.0 101678
06:00+12ююв2370100 0.0 101559
09:00+18юв3457100 0.0 1014340
12:00+22юв3447100 0.0 1013975
15:00+24вюв234371 0.0 10121209
18:00+22юв235441 0.0 1011328
21:00+18ююв237192 0.0 101059
9 мая, вс
вс900:00+15зюз3463100 0.0 100993
03:00+13з3591100 1.8 1011222
06:00+13з2297100 5.4 1010239
09:00+9зсз101494100 10.7 1014964
12:00+8сз61092100 2.3 10191231
15:00+8сз4989100 3.1 10221046
18:00+10ссз48775 0.8 10231152
21:00+7ююз238888 1.0 102550
10 мая, пн
пн1000:00+7юз3689100 0.1 1025169
03:00+7зюз3987100 0.1 1024207
06:00+7з3887100 0.1 1024223
09:00+12зсз5860100 0.3 10231435
12:00+14зсз7942100 0.1 10222406
15:00+12сз7963100 0.3 10221502
18:00+10з61078100 0.5 10211202
21:00+7юз51193100 3.6 1020602